Location: Ikejouine
(32.5142°N, 5.4699°W)
Time: 01:18:17
(UTC+00:00)

Cosmos 1758 Rocket - Pass Details

Date: 09 April 2020
Orbit: 603 x 635 km, 82.5° (Epoch: 06 June)

Event Time Altitude Azimuth Distance (km) Brightness Sun altitude
Rises 19:21:24 0° 1° (N) 2,863 7.2 -7.8°
Reaches altitude 10° 19:23:42 10° 7° (N) 1,953 6.2 -8.2°
Maximum altitude 19:27:51 46° 81° (E) 812 3.8 -9.1°
Drops below altitude 10° 19:31:58 10° 155° (SSE) 1,939 5.7 -9.9°
Sets 19:34:14 0° 162° (SSE) 2,840 6.6 -10.4°
